Location: Orange Harbor Mobile Home Park
(26.6923°N, 81.7937°W)
Time: 23:20:11
(UTC+00:00)

Meteor 1-15 Rocket - Pass Details

Date: 19 September 2020
Orbit: 840 x 907 km, 81.2° (Epoch: 25 October)

Event Time Altitude Azimuth Distance (km) Brightness Sun altitude
Rises 00:52:12 0° 172° (S) 3,380 7.1 -19.6°
Reaches altitude 10° 00:54:40 10° 166° (SSE) 2,451 6.4 -20.1°
Maximum altitude 00:59:58 48° 93° (E) 1,092 4.3 -21.3°
Drops below altitude 10° 01:05:22 10° 20° (NNE) 2,490 6.6 -22.5°
Sets 01:07:52 0° 15° (NNE) 3,438 7.4 -23.0°
